Wind_Speed
54 54 51 49 46 46 44 43 41 41 39 36 34 31 29 27 25 24 23 22 23 22 23 22 21 21 23 22 22 21 19 16 14 10 8 11 14 20 21 23 22 21 22 28 24 30 24
56 55 54 52 50 49 46 44 42 41 40 38 35 33 31 29 28 26 24 22 22 21 21 19 19 18 17 18 20 22 22 19 18 14 13 14 13 15 18 24 26 19 17 21 21 25 29
57 57 57 56 54 52 50 48 45 43 40 38 36 36 34 32 29 26 24 23 24 23 22 19 17 17 16 18 18 20 24 23 22 19 16 15 17 15 13 17 27 26 20 19 15 20 28
55 56 57 56 56 56 54 52 50 49 47 44 41 39 37 34 33 31 29 28 26 25 25 22 19 18 16 15 18 18 20 24 24 23 21 19 20 18 21 17 16 17 15 11 15 15 19
56 56 57 56 56 56 57 55 54 52 49 46 46 44 41 38 37 36 34 33 32 30 28 26 23 23 19 18 18 17 19 23 25 27 26 28 25 26 23 24 20 14 14 10 14 15 15
55 57 58 58 58 57 55 55 55 54 52 51 49 48 45 44 42 42 39 38 36 35 33 31 29 28 26 23 19 18 17 21 25 29 29 31 33 28 26 30 25 16 13 13 16 17 16
58 59 59 60 60 58 58 57 57 56 54 53 53 52 50 47 46 44 42 42 40 38 36 34 32 30 29 27 23 22 21 22 23 25 30 33 33 34 25 32 31 24 25 21 19 20 20
58 59 61 62 61 60 59 58 56 56 55 54 54 53 51 50 49 46 42 40 43 42 41 39 36 36 32 34 30 26 26 26 24 26 30 31 33 33 35 30 33 31 27 28 28 31 27
57 58 60 61 63 63 63 62 61 59 57 56 54 53 52 52 50 48 45 47 46 46 45 45 42 39 36 36 34 32 32 29 27 29 29 28 33 34 35 35 36 30 31 27 26 30 32
56 58 60 61 62 64 65 66 65 63 62 61 59 58 57 55 54 52 51 50 50 50 49 47 46 40 40 39 36 35 33 32 32 32 29 28 31 35 37 38 37 42 39 33 32 29 32
53 55 57 60 62 64 65 65 65 66 67 66 65 64 61 59 58 57 56 54 55 52 52 49 49 43 44 46 40 39 37 36 37 34 34 29 32 31 39 39 38 38 44 46 45 40 39
47 51 54 57 59 61 63 64 65 67 67 67 66 67 66 65 63 61 59 57 56 53 52 52 50 50 47 49 44 41 40 41 39 36 40 34 34 36 39 35 39 40 44 45 46 49 51
46 47 49 51 53 56 59 61 62 63 64 65 66 67 67 66 64 64 62 60 59 56 55 55 52 53 51 50 48 46 44 44 42 39 43 38 36 37 38 38 38 39 42 43 44 47 49
50 50 50 50 51 52 53 55 58 59 62 63 64 65 65 62 64 63 62 61 59 59 59 58 56 55 56 52 51 49 44 47 46 44 45 44 40 43 44 42 39 39 40 43 41 43 45
55 55 54 54 54 54 54 54 54 55 56 57 61 63 62 60 64 63 62 59 61 63 63 62 60 59 57 55 52 52 49 49 49 48 47 46 47 46 46 44 41 42 43 46 43 43 42
61 61 60 60 58 58 58 57 56 56 55 54 57 57 58 61 62 61 59 57 62 64 66 66 62 61 60 57 52 50 52 52 52 52 51 49 50 50 51 48 45 47 47 48 49 49 48
64 64 65 66 65 64 63 62 60 59 59 58 58 56 57 56 57 57 55 58 62 63 64 64 62 61 61 57 56 55 55 56 55 56 55 52 51 54 54 51 54 50 51 52 52 52 52
67 68 69 70 69 69 69 69 67 65 63 61 62 60 60 57 54 53 55 58 62 64 63 61 58 57 55 54 54 54 55 57 59 57 56 57 54 56 56 56 55 52 52 53 52 53 52
64 67 69 71 72 73 72 72 71 71 69 67 65 64 62 60 59 61 62 61 60 58 56 53 51 49 49 51 53 54 56 57 53 50 51 51 48 53 52 51 50 50 50 51 50 48 49
67 68 69 70 71 73 75 75 75 74 73 72 70 69 64 65 64 65 65 64 62 59 52 51 50 47 48 50 52 55 57 56 50 49 50 49 47 48 48 52 52 48 47 49 47 48 48
70 72 72 73 72 73 74 75 76 76 76 75 74 71 70 70 70 69 67 66 66 64 58 55 53 51 50 48 48 50 50 50 46 44 47 47 45 47 49 49 45 42 44 43 43 44 41
72 73 74 75 75 76 76 76 76 76 77 76 74 73 75 76 74 72 70 71 69 67 59 56 58 58 51 50 50 51 49 50 45 44 43 42 42 43 46 46 43 41 42 41 40 36 33
64 67 71 73 75 76 77 78 78 78 77 76 75 74 77 78 76 73 71 73 71 67 65 62 65 61 57 57 54 54 55 52 49 50 50 45 45 46 48 45 44 39 37 37 39 37 32
53 55 57 62 68 71 74 77 79 80 80 80 78 76 76 78 77 74 72 73 73 70 70 69 66 63 63 64 58 57 57 55 53 55 53 49 47 51 52 47 45 41 36 37 36 35 34
42 46 48 49 53 57 62 69 75 78 80 81 81 81 80 80 76 74 72 73 73 70 73 71 67 67 66 65 61 60 60 62 58 57 53 51 52 55 53 50 45 42 39 36 33 31 33
29 37 42 44 43 45 48 55 63 70 77 79 81 82 82 81 78 74 73 74 73 71 72 69 64 67 67 65 63 62 63 65 63 58 57 56 56 57 58 54 48 43 42 36 34 32 32
23 28 36 41 42 41 43 45 49 55 64 71 76 79 80 80 80 78 76 76 76 75 75 70 64 62 65 65 64 63 65 66 63 57 57 58 59 58 59 56 51 48 44 41 38 36 36
21 25 30 36 42 43 44 43 43 44 49 57 63 71 78 81 81 80 81 80 79 78 76 72 69 66 64 65 65 65 66 67 65 61 59 59 59 57 56 55 52 49 47 43 44 42 40
22 23 27 32 37 44 47 46 45 43 43 46 50 60 68 74 78 81 85 84 82 80 77 72 68 67 65 64 64 64 65 65 64 63 60 59 59 55 53 53 54 46 44 45 44 42 43
Wind_Direction
207 205 206 210 213 217 221 224 225 229 233 235 241 247 250 253 253 252 251 251 251 248 246 248 247 242 240 243 240 238 240 234 234 232 226 219 214 215 219 219 226 225 229 229 239 242 235
214 214 211 212 214 217 221 225 229 232 236 239 241 244 248 249 250 252 249 255 252 253 245 244 246 242 236 244 245 239 238 237 233 226 212 211 210 200 196 209 208 216 240 257 253 242 237
218 218 219 218 218 221 223 225 227 231 233 236 239 241 242 247 249 250 249 250 255 255 248 243 242 244 238 234 241 243 235 233 237 234 213 199 190 179 182 200 220 230 244 251 262 246 247
224 223 223 225 226 226 226 227 228 231 234 235 238 241 241 242 246 250 250 250 253 256 255 252 252 250 244 237 236 242 241 232 228 232 220 207 210 208 219 222 216 228 236 254 256 244 243
227 228 228 230 231 231 230 231 232 234 234 234 237 238 241 241 244 248 250 250 254 252 253 256 257 259 254 244 238 235 239 238 231 225 223 218 221 226 228 209 202 222 229 244 254 236 249
231 231 231 231 232 233 234 235 236 235 237 236 236 240 239 241 242 244 248 250 252 256 256 257 258 261 265 254 245 244 241 241 236 231 227 226 220 227 226 222 216 225 234 234 244 236 237
235 234 234 234 233 234 235 237 238 238 237 237 238 239 240 242 244 245 249 251 251 254 259 261 263 267 266 264 256 246 243 241 243 240 233 231 236 224 230 231 233 234 242 235 236 237 238
236 237 237 236 236 235 236 237 238 239 240 239 240 240 241 243 243 246 246 250 249 247 252 254 255 256 257 258 255 248 244 240 237 237 239 237 240 238 230 229 243 244 241 242 247 242 248
237 237 237 237 237 238 239 239 239 240 240 240 239 240 241 241 243 243 244 244 245 245 247 250 251 250 252 255 257 256 252 245 242 240 241 236 242 245 242 235 229 235 236 233 238 243 244
239 239 238 237 238 239 240 240 240 242 242 242 243 241 241 242 243 244 244 244 244 247 247 248 251 252 253 251 254 254 256 254 247 244 243 239 236 242 245 244 236 236 230 235 238 242 243
241 240 240 240 240 240 240 240 240 241 242 243 244 244 244 244 243 244 244 244 244 242 245 248 251 249 250 253 253 251 250 251 250 248 246 240 242 238 243 243 244 240 243 236 240 241 245
240 240 241 241 241 241 241 241 241 242 242 242 242 243 243 244 243 243 243 244 243 242 242 244 245 248 245 250 253 253 251 254 257 252 254 242 242 244 245 241 244 243 243 243 242 242 246
241 242 241 240 240 240 241 241 241 241 241 241 242 243 243 243 243 243 242 242 243 243 242 243 241 245 245 247 249 249 247 249 254 253 253 251 248 250 250 245 245 247 246 246 247 248 249
243 242 242 242 242 241 240 239 240 240 240 240 240 241 241 241 242 241 241 240 241 243 244 243 244 244 246 247 250 252 251 249 252 252 251 254 250 249 249 250 250 252 254 255 248 249 254
247 246 244 244 242 242 242 241 239 239 239 238 239 240 240 239 240 240 240 238 238 239 242 243 244 245 246 246 246 249 249 248 252 252 252 251 256 253 253 252 251 251 254 256 260 257 251
248 247 246 246 244 243 242 241 240 240 239 238 239 239 239 238 238 239 239 238 239 239 240 242 242 244 245 246 247 247 249 249 249 251 251 252 254 257 256 256 254 254 250 253 256 257 262
248 247 246 246 245 245 243 242 240 240 240 239 239 238 238 238 238 238 239 237 237 237 239 240 241 241 244 244 244 245 244 246 247 249 250 250 252 256 256 258 256 254 256 254 254 257 258
248 247 247 246 245 244 244 244 242 242 240 239 239 239 238 238 238 237 236 236 237 237 238 238 239 239 241 242 243 243 244 245 244 243 244 246 247 252 255 255 257 259 259 258 257 254 256
249 248 247 246 245 244 243 243 242 242 241 240 238 238 238 238 236 236 236 236 238 240 241 242 241 240 238 239 240 240 241 240 241 244 249 249 248 250 253 256 257 255 255 257 258 259 258
250 248 246 245 245 245 244 242 241 242 241 240 239 238 237 238 237 237 237 237 238 239 238 238 237 234 232 232 235 238 241 245 243 244 245 249 249 251 250 253 252 255 257 257 260 262 261
252 251 248 246 244 243 243 243 242 241 240 239 239 239 237 238 236 236 237 237 237 239 237 237 239 238 236 233 234 237 240 242 243 238 241 244 244 246 250 251 254 254 254 258 259 262 265
254 253 251 248 246 244 242 241 241 240 239 238 237 238 237 236 236 236 235 237 237 239 238 237 237 238 237 236 234 238 240 242 243 244 240 240 242 245 249 251 253 253 254 256 259 262 265
254 252 251 250 248 245 244 242 240 239 238 238 236 234 236 237 236 235 236 238 237 237 237 235 237 236 237 237 235 235 236 238 238 243 247 243 245 245 247 249 251 250 252 255 256 258 260
254 251 250 249 248 246 244 243 241 239 237 237 235 233 234 235 234 234 235 237 237 235 235 234 234 235 235 236 235 235 238 239 237 238 242 245 244 245 246 247 250 251 248 253 257 257 255
255 250 249 249 247 245 243 241 239 238 238 236 234 233 231 233 233 232 232 234 237 236 235 234 232 234 235 237 235 235 237 238 237 239 238 240 242 248 249 249 250 253 254 254 257 257 256
261 250 246 245 246 245 243 240 237 236 236 235 233 232 231 231 231 229 230 231 232 232 234 235 233 234 234 236 236 234 234 238 238 236 237 237 240 246 252 254 253 253 254 254 253 253 251
267 255 247 245 243 242 242 240 237 236 236 235 233 232 231 230 228 227 227 229 230 230 232 231 228 229 234 235 233 234 234 236 237 238 240 241 241 242 248 251 253 255 254 254 251 247 246
279 261 252 246 242 241 239 238 238 237 237 237 233 231 229 228 227 225 225 226 228 229 230 229 228 225 227 231 231 231 233 234 236 235 236 237 240 242 246 251 253 254 255 257 257 255 252
298 277 259 249 244 240 238 237 236 237 237 239 233 227 225 224 223 224 224 225 225 227 229 228 228 227 226 227 231 231 231 233 234 234 236 236 239 241 244 246 250 252 252 253 253 253 251
Height
10929 10933 10937 10942 10947 10952 10957 10961 10964 10968 10972 10976 10979 10982 10985 10988 10990 10992 10994 10995 10996 10998 11000 11002 11003 11006 11008 11011 11012 11013 11013 11014 11016 11017 11018 11019 11017 11018 11021 11022 11027 11029 11030 11030 11034 11033 11034
10924 10928 10932 10936 10941 10946 10951 10955 10959 10963 10966 10971 10975 10978 10980 10982 10985 10988 10990 10990 10991 10993 10995 10997 10999 11001 11005 11007 11008 11009 11010 11012 11012 11016 11017 11018 11017 11015 11018 11022 11024 11026 11027 11029 11031 11030 11033
10917 10922 10926 10930 10935 10939 10944 10949 10953 10956 10960 10964 10968 10972 10975 10977 10980 10983 10985 10987 10988 10989 10991 10993 10995 10997 11000 11003 11004 11005 11007 11010 11010 11011 11014 11016 11017 11016 11017 11020 11023 11025 11025 11025 11026 11027 11027
10910 10915 10919 10923 10928 10932 10937 10941 10945 10949 10953 10957 10961 10965 10969 10972 10975 10978 10980 10983 10984 10984 10985 10988 10991 10993 10995 10999 11001 11002 11004 11006 11009 11008 11010 11014 11015 11017 11015 11018 11019 11021 11023 11022 11023 11023 11023
10902 10907 10912 10915 10919 10924 10929 10933 10938 10942 10945 10950 10953 10957 10961 10965 10969 10971 10975 10977 10978 10980 10981 10983 10986 10987 10991 10993 10996 10998 11000 11001 11005 11006 11008 11010 11012 11013 11014 11015 11016 11020 11021 11020 11020 11020 11020
10892 10897 10902 10907 10911 10915 10919 10924 10929 10933 10937 10941 10945 10949 10954 10957 10962 10965 10968 10971 10973 10974 10976 10978 10981 10983 10985 10988 10992 10994 10996 10996 10998 11001 11003 11005 11007 11010 11012 11012 11014 11018 11019 11020 11019 11020 11019
10882 10886 10891 10896 10901 10905 10910 10914 10919 10923 10928 10932 10936 10941 10945 10949 10953 10958 10962 10965 10969 10970 10971 10973 10977 10979 10980 10981 10986 10990 10992 10993 10993 10995 10997 10999 11001 11006 11007 11008 11011 11014 11015 11018 11018 11017 11018
10870 10874 10879 10884 10889 10893 10899 10903 10908 10913 10918 10922 10926 10932 10937 10940 10945 10949 10955 10960 10960 10961 10962 10964 10968 10969 10973 10973 10977 10983 10985 10987 10990 10990 10990 10994 10995 10998 11001 11004 11005 11009 11011 11013 11013 11014 11015
10856 10861 10866 10871 10876 10881 10886 10891 10896 10901 10906 10911 10916 10921 10926 10930 10935 10942 10947 10948 10949 10950 10954 10955 10959 10962 10965 10967 10970 10972 10977 10982 10986 10985 10987 10991 10992 10991 10994 10998 11000 11003 11007 11008 11009 11010 11012
10844 10848 10852 10857 10862 10867 10872 10878 10883 10888 10893 10898 10903 10908 10914 10919 10925 10930 10935 10938 10939 10941 10944 10948 10950 10958 10958 10959 10962 10966 10970 10974 10977 10979 10983 10985 10986 10987 10987 10989 10995 10995 11001 11003 11005 11008 11008
10831 10834 10839 10843 10848 10852 10857 10863 10868 10874 10879 10884 10889 10894 10901 10907 10912 10917 10921 10926 10926 10932 10935 10940 10942 10950 10950 10949 10955 10957 10962 10964 10966 10973 10975 10981 10979 10982 10979 10984 10987 10990 10990 10997 10998 11001 11003
10820 10822 10825 10829 10833 10837 10842 10847 10853 10859 10864 10868 10873 10878 10886 10892 10897 10902 10907 10912 10914 10920 10925 10928 10933 10936 10941 10940 10946 10952 10955 10956 10960 10965 10962 10972 10973 10973 10972 10980 10980 10983 10982 10985 10990 10994 10994
10809 10811 10813 10816 10820 10823 10827 10832 10837 10843 10848 10853 10857 10862 10869 10876 10883 10887 10894 10898 10901 10908 10912 10915 10922 10924 10928 10933 10937 10940 10946 10947 10951 10956 10955 10962 10967 10966 10967 10970 10973 10974 10975 10979 10983 10984 10987
10797 10799 10802 10805 10807 10810 10814 10818 10822 10827 10833 10838 10841 10846 10853 10862 10864 10873 10878 10885 10891 10894 10897 10902 10909 10915 10916 10924 10927 10931 10939 10940 10942 10946 10947 10950 10957 10955 10956 10960 10967 10969 10970 10968 10975 10979 10980
10782 10785 10788 10791 10795 10798 10801 10804 10809 10814 10817 10824 10826 10832 10839 10847 10848 10855 10862 10872 10876 10878 10883 10888 10895 10901 10907 10911 10918 10920 10927 10931 10933 10937 10940 10941 10941 10946 10948 10953 10959 10961 10962 10960 10965 10967 10971
10766 10769 10772 10775 10779 10783 10787 10791 10796 10800 10804 10811 10812 10818 10825 10827 10833 10840 10848 10858 10858 10863 10866 10871 10882 10888 10893 10899 10907 10913 10916 10919 10922 10924 10929 10933 10932 10936 10937 10943 10949 10949 10953 10954 10956 10957 10959
10747 10750 10753 10757 10762 10766 10770 10774 10781 10785 10791 10796 10799 10805 10810 10815 10821 10828 10837 10839 10840 10845 10851 10859 10869 10875 10880 10887 10894 10900 10905 10906 10910 10912 10916 10922 10925 10924 10927 10933 10932 10939 10942 10944 10946 10948 10950
10726 10730 10733 10737 10742 10747 10751 10756 10763 10768 10775 10780 10784 10792 10796 10803 10810 10816 10819 10820 10824 10829 10837 10846 10856 10864 10871 10877 10882 10887 10890 10892 10894 10900 10904 10907 10914 10915 10916 10918 10922 10928 10930 10931 10934 10935 10940
10705 10708 10712 10715 10720 10725 10731 10736 10743 10748 10755 10763 10769 10776 10783 10790 10796 10798 10800 10806 10811 10819 10828 10838 10845 10854 10861 10864 10867 10871 10873 10877 10885 10892 10894 10897 10906 10903 10907 10909 10912 10915 10917 10919 10923 10926 10929
10682 10685 10690 10693 10698 10702 10708 10715 10722 10729 10736 10744 10751 10759 10769 10773 10778 10782 10787 10794 10800 10805 10818 10825 10830 10839 10845 10850 10854 10858 10862 10866 10877 10882 10883 10886 10891 10894 10897 10895 10897 10904 10909 10909 10914 10916 10919
10659 10662 10666 10671 10676 10681 10686 10692 10699 10706 10714 10724 10733 10742 10751 10754 10757 10764 10773 10780 10786 10792 10803 10813 10819 10827 10832 10840 10846 10848 10854 10857 10863 10870 10873 10877 10881 10882 10882 10885 10890 10895 10897 10901 10904 10906 10914
10633 10636 10640 10645 10651 10657 10662 10669 10676 10684 10692 10702 10713 10720 10727 10730 10740 10748 10758 10760 10769 10778 10794 10804 10807 10810 10823 10830 10836 10839 10845 10847 10854 10857 10862 10868 10870 10872 10871 10875 10881 10885 10890 10894 10897 10901 10906
10607 10610 10613 10618 10625 10632 10638 10645 10652 10661 10669 10680 10691 10698 10702 10712 10722 10733 10742 10745 10756 10768 10776 10785 10785 10797 10809 10813 10821 10829 10831 10837 10845 10845 10849 10858 10860 10861 10860 10866 10869 10875 10880 10884 10888 10893 10899
10583 10587 10589 10593 10598 10605 10612 10619 10627 10636 10645 10656 10667 10677 10682 10690 10703 10717 10725 10729 10737 10750 10756 10764 10774 10784 10791 10795 10808 10814 10819 10825 10833 10834 10838 10844 10847 10846 10847 10855 10860 10866 10873 10875 10879 10884 10890
10563 10567 10569 10573 10576 10581 10587 10593 10601 10610 10621 10631 10642 10653 10662 10669 10684 10698 10708 10711 10719 10732 10735 10746 10761 10767 10772 10781 10792 10799 10805 10807 10818 10821 10829 10833 10835 10834 10837 10844 10852 10858 10865 10869 10873 10876 10879
10549 10550 10553 10556 10559 10562 10566 10572 10579 10587 10596 10605 10617 10627 10640 10651 10665 10679 10688 10692 10700 10712 10716 10730 10747 10751 10757 10767 10777 10782 10786 10791 10800 10810 10816 10821 10824 10825 10825 10833 10844 10851 10853 10859 10863 10867 10869
10538 10538 10540 10542 10545 10548 10552 10555 10561 10568 10575 10583 10594 10606 10618 10632 10644 10657 10666 10674 10682 10691 10699 10714 10728 10737 10742 10751 10760 10764 10771 10776 10785 10798 10804 10809 10811 10817 10816 10824 10832 10838 10843 10847 10851 10855 10857
10529 10527 10528 10529 10532 10535 10538 10542 10547 10553 10557 10562 10572 10582 10593 10606 10621 10634 10643 10652 10661 10672 10682 10699 10710 10719 10726 10732 10741 10748 10754 10761 10771 10782 10787 10794 10799 10806 10809 10814 10822 10829 10833 10836 10836 10842 10846
10520 10517 10516 10516 10517 10519 10524 10529 10534 10539 10543 10547 10553 10560 10570 10585 10604 10613 10620 10631 10643 10655 10666 10683 10696 10706 10716 10720 10725 10733 10740 10749 10760 10766 10772 10780 10788 10798 10803 10805 10806 10817 10820 10820 10821 10825 10829